#timestamp,LO_Frequency,Hit,StdDev 
1511416815.1,286046996.7,N
1511416816.0,286046996.7,N
1511416835.8,286046998.7,N
1511416855.6,286046996.6,N
1511416875.5,286046996.2,N
1511416895.3,286046996.0,N
1511416915.2,286046997.6,N
1511416935.9,286046997.5,N
1511416955.7,286046997.9,N
1511416975.6,286046998.0,N
1511416995.4,286046996.7,N
1511417015.2,286046994.9,N
1511417035.1,286046995.0,N
1511417036.0,286046995.0,N
1511417055.8,286046998.0,N
1511417075.7,286046996.5,N
1511417095.5,286046996.7,N
1511417115.3,286046998.8,N
1511417135.2,286046999.5,N
1511417155.0,286047001.1,N
1511417155.9,286047001.1,N
1511417175.8,286046997.8,N
1511417195.6,286046995.6,N
1511417215.4,286046997.7,N
1511417235.3,286046999.2,N
1511417255.1,286046997.4,N
1511417275.8,286046995.5,N
1511417295.7,286046993.9,Y
1511417315.5,286046997.7,P
1511417335.4,286046996.1,P
1511417355.2,286046996.0,P
1511417375.0,286046997.0,Y
1511417375.9,286046997.0,P
1511417395.8,286047001.3,P
1511417415.6,286047003.3,N
1511417435.4,286047004.4,N
1511417455.3,286047003.9,N
1511417475.1,286047004.7,N
1511417495.9,286047005.4,N
1511417515.7,286047005.7,N
1511417535.5,286047007.5,N
1511417555.4,286047004.5,N
1511417575.2,286047007.3,N
1511417595.0,286047006.3,N
1511417595.9,286047006.3,N
1511417615.8,286047006.8,N
1511417635.6,286047004.5,N
1511417655.5,286047003.5,N
1511417675.3,286047001.4,N
1511417695.1,286047002.0,N
1511417715.9,286047000.9,N
1511417735.7,286047002.2,N
1511417755.5,286047003.9,N
1511417775.4,286047001.3,N
1511417795.2,286047004.2,N
1511417815.1,286047003.3,N
1511417816.0,286047003.3,N
1511417835.8,286047004.8,N
1511417855.6,286047003.6,N
1511417875.5,286047002.2,N
1511417895.3,286047000.4,N
1511417915.2,286046999.8,N
1511417935.9,286047003.6,N
1511417955.7,286047004.5,N
1511417975.6,286047004.6,N
1511417995.4,286047005.6,N
1511418015.2,286047001.8,N
1511418035.1,286047004.2,N
1511418036.0,286047004.2,N
1511418055.8,286047005.8,N
1511418075.7,286047001.4,N
1511418095.5,286047001.8,N
1511418115.3,286047004.0,N
1511418135.2,286047001.7,N
1511418155.0,286047002.6,N
1511418155.9,286047002.6,N
1511418175.7,286047001.9,N
1511418195.6,286047002.7,N
1511418215.4,286047004.4,N
1511418235.3,286047004.0,N
1511418255.1,286047003.5,N
1511418256.0,286047003.5,N
1511418275.8,286047002.9,N
1511418295.7,286047003.8,N
1511418315.5,286047006.0,Y
1511418335.4,286047000.4,P
1511418355.2,286047000.5,N
1511418375.0,286046998.1,N
1511418375.9,286046998.1,N
1511418395.8,286047002.8,N
1511418415.6,286047002.4,N
1511418435.4,286047001.4,N
1511418455.3,286047003.0,N
1511418475.1,286047003.6,N
1511418495.9,286047003.1,N
1511418515.7,286047001.8,N
1511418535.5,286047003.9,N
1511418555.4,286047001.8,N
1511418575.2,286047004.2,N
1511418595.0,286047004.1,N
1511418596.0,286047004.1,N
1511418615.8,286047003.6,N
1511418635.6,286047003.3,N
1511418655.5,286047004.3,N
1511418675.3,286047004.4,N
1511418695.1,286046998.2,N
1511418715.9,286047000.4,N
1511418735.7,286047000.0,N
1511418755.6,286047000.5,N
1511418775.4,286047000.0,N
1511418795.2,286046998.2,N
1511418815.1,286046997.9,N
1511418816.0,286046997.9,N
1511418835.8,286046997.4,N
1511418855.6,286046998.9,N
1511418875.5,286046996.7,N
1511418895.3,286046996.6,N
1511418915.2,286046996.9,N
1511418935.9,286046999.0,N
1511418955.7,286046998.9,N
1511418975.6,286046998.6,N
1511418995.4,286046998.7,N
1511419015.3,286047000.3,N
1511419035.1,286047000.9,N
1511419036.0,286047000.9,N
1511419055.8,286047000.3,N
1511419075.7,286047000.1,N
1511419095.5,286047000.8,N
1511419115.3,286046999.4,N
1511419135.2,286046997.0,N
1511419155.0,286046999.0,N
1511419155.9,286046999.0,N
1511419175.8,286046998.6,N
1511419195.6,286047001.1,N
1511419215.4,286047000.6,N
1511419235.3,286047002.4,N
1511419255.1,286047000.6,N
1511419275.8,286046999.9,N
1511419295.7,286047002.1,N
1511419315.5,286047000.4,N
1511419335.4,286046998.5,N
1511419355.2,286046998.6,N
1511419375.0,286046999.0,N
1511419375.9,286046999.0,N
1511419395.8,286047000.7,N
1511419415.6,286047002.3,N
1511419435.5,286047001.3,N
1511419455.3,286047002.2,N
1511419475.1,286046999.7,N
1511419495.9,286046999.2,N
1511419515.7,286046994.9,Y
1511419535.5,286046995.5,P
1511419555.4,286046997.5,N
1511419575.2,286046998.0,N
1511419595.1,286046996.9,N
1511419596.0,286046996.9,N
1511419615.8,286046998.7,N
1511419635.6,286046996.8,N
1511419655.5,286046997.1,N
1511419675.3,286046997.7,N
1511419695.1,286046999.2,N
1511419715.9,286047000.9,N
1511419735.7,286046998.3,N
1511419755.6,286046999.3,N
1511419775.4,286046999.7,N
1511419795.2,286047002.0,N
1511419815.1,286046999.9,N
1511419816.0,286046999.9,N
1511419835.8,286047000.9,N
1511419855.6,286046999.0,N
1511419875.5,286047000.8,N
1511419895.3,286047000.9,N
1511419915.2,286047001.0,N
1511419935.9,286047002.7,N
1511419955.7,286047001.8,N
1511419975.6,286046998.6,N
1511419995.4,286046998.8,N
1511420015.3,286047001.1,N
1511420035.1,286047000.0,N
1511420036.0,286047000.0,N
1511420055.8,286046998.2,N
1511420075.7,286046998.8,N
1511420095.5,286046997.0,N
1511420115.3,286046996.2,N
1511420135.2,286046995.3,N
1511420155.0,286046995.9,N
1511420155.9,286046995.9,N
1511420175.8,286046995.0,N
1511420195.6,286046996.6,N
1511420215.4,286046997.9,N
1511420235.3,286046997.5,N
1511420255.1,286046996.5,N
1511420275.9,286046998.5,N
1511420295.7,286046998.3,N
1511420315.5,286047001.0,N
1511420335.4,286047000.3,N
1511420355.2,286046999.8,N
1511420375.0,286047002.7,N
1511420375.9,286047002.7,N
1511420395.8,286047001.1,N
